SPOT 6

Last updated on Mon Jul 07 2025 00:02:28 GMT+0000 (Coordinated Universal Time)

1 38755U 12047A 25187.58405063 .00000247 00000+0 62813-4 0 9992 2 38755 98.1765 255.1019 0001615 102.8314 257.3066 14.58576613682675
UTC large
Height (km)
Speed (km/s)
/
Latitude / Longitude
Inclination (degrees)
Orbital Period (minutes)
Azimuth
Elevation
Range (km)
Doppler Factor

Next 0 passes for location: London (51.5072 / 0.1276)

Sorry there are no passes over London.